sat.trackr.live / text

‹ back to catalog

SJ-9A

NORAD 38860 · 2012-056A

PAYLOAD ACTIVE UNKNOWN

§ Identity

Operator
Country
PRC
Launch date
2012-10-14
Launch site
TAISC
Launch vehicle
Mass (kg)
RCS (m²)
2.53

External: N2YO · Heavens-Above · Gunter

§ Orbital elements

Epoch: 2026-09-09T03:47:18.887136Z

Period
96.93 min
Inclination
97.6814°
Eccentricity
0.0025083
Mean motion
14.85631155 rev/d
Perigee alt
594.1 km
Apogee alt
629.1 km
Semi-major
6,989.7 km
B*
9.9163e-5
RAAN
221.1226°
Arg perigee
344.6326°
Mean anomaly
15.4125°
Rev number
71,205

§ Raw data

SJ-9A1 38860U 12056A   26252.15785749  .00000810  00000+0  99163-4 0  99922 38860  97.6814 221.1226 0025083 344.6326  15.4125 14.85631155712056

JSON: /api/v1/satellites/38860 · /tle

For live sub-satellite position, see the globe view (requires WebGL).

§ Visibility from observer

Set your observer location to see the next 7 days of passes ≥ 10°. The values pass through the URL so the page stays shareable.

No JS? Fill the form by hand. The geolocation button needs JavaScript.

§ Radio — SatNOGS DB

ModeDescriptionDownlinkUplink
FM Mode S 2.214 GHz

1 transmitter · refreshed weekly from db.satnogs.org